New Bedford, MA

6:59 AM EDT on May 26, 2017 (GMT -0400)
New Bedford Regional

Weather History for KEWB - April, 2014

Change the Weather History Date:

Saturday, April 26, 2014

  Actual Average Record
Temperature  
Mean Temperature 44 °F -  
Max Temperature 48 °F 59 °F 76 °F (1985)
Min Temperature 41 °F 42 °F 32 °F (1997)
Degree Days  
Heating Degree Days 20    
Moisture  
Dew Point 39 °F    
Average Humidity 78    
Maximum Humidity 89    
Minimum Humidity 66    
Precipitation  
Precipitation 0.05 in - - ()
Sea Level Pressure  
Sea Level Pressure 29.80 in    
Wind  
Wind Speed 6 mph (ENE)    
Max Wind Speed 9 mph    
Max Gust Speed -    
Visibility 10 miles    
Events Rain    
Averages and records for this station are not official NWS values.
T = Trace of Precipitation, MM = Missing Value Source: NWS Daily Summary

Daily Weather History Graph

Daily Weather History Graph

Search for Another Location

Airport or City:

Trip Planner

Search our weather history database for the weather conditions in past years. The results will help you decide how hot, cold, wet, or windy it might be!

Date:

Astronomy

Apr. 26, 2014 Rise Set
Actual Time 5:47 AM EDT 7:36 PM EDT
Civil Twilight 5:17 AM EDT 8:06 PM EDT
Nautical Twilight 4:41 AM EDT 8:42 PM EDT
Astronomical Twilight 4:02 AM EDT 9:21 PM EDT
Moon 4:12 AM EDT 4:59 PM EDT
Length of Visible Light 14h 48m
Length of Day
13h 49m
Waning Crescent, 8% of the Moon is Illuminated
Apr 26
Waning Crescent
Apr 29
New
May 6
First Quarter
May 14
Full
May 21
Last Quarter

Hourly Weather History & Observations

Time (EDT) Temp. Windchill Dew Point Humidity Pressure Visibility Wind Dir Wind Speed Gust Speed Precip Events Conditions
12:53 AM 44.1 °F 41.5 °F 37.9 °F 79% 29.86 in 10.0 mi South 4.6 mph - N/A   Clear
1:53 AM 44.1 °F 40.1 °F 39.0 °F 82% 29.83 in 10.0 mi SSE 6.9 mph - N/A   Mostly Cloudy
2:53 AM 45.0 °F 41.2 °F 39.0 °F 80% 29.81 in 10.0 mi SE 6.9 mph - N/A   Clear
3:53 AM 45.0 °F 40.6 °F 37.0 °F 74% 29.78 in 10.0 mi SE 8.1 mph - N/A   Clear
4:53 AM 46.0 °F 42.5 °F 36.0 °F 68% 29.77 in 10.0 mi ESE 6.9 mph - N/A   Partly Cloudy
5:53 AM 46.9 °F - 36.0 °F 66% 29.78 in 10.0 mi East 4.6 mph - N/A   Mostly Cloudy
6:53 AM 46.0 °F 43.1 °F 37.9 °F 73% 29.78 in 10.0 mi North 5.8 mph - N/A   Overcast
7:53 AM 46.9 °F - 37.9 °F 71% 29.79 in 10.0 mi North 5.8 mph - N/A   Overcast
8:53 AM 46.9 °F - 37.0 °F 68% 29.79 in 10.0 mi NE 6.9 mph - N/A   Overcast
9:53 AM 46.0 °F 43.1 °F 39.9 °F 79% 29.78 in 10.0 mi NNE 5.8 mph - 0.01 in Rain Light Rain
10:53 AM 46.0 °F 43.1 °F 39.9 °F 79% 29.78 in 10.0 mi NNE 5.8 mph - 0.00 in Rain Light Rain
11:53 AM 46.0 °F 41.4 °F 42.1 °F 86% 29.77 in 9.0 mi ENE 9.2 mph - 0.02 in Rain Light Rain
12:53 PM 46.0 °F 41.4 °F 42.1 °F 86% 29.75 in 10.0 mi ENE 9.2 mph - 0.02 in Rain Light Rain
1:53 PM 46.0 °F 41.4 °F 39.9 °F 79% 29.76 in 10.0 mi ENE 9.2 mph - 0.00 in Rain Light Rain
2:53 PM 46.9 °F - 39.9 °F 77% 29.75 in 10.0 mi Variable 3.5 mph - 0.00 in   Overcast
3:53 PM 46.9 °F - 41.0 °F 80% 29.78 in 10.0 mi Variable 3.5 mph - N/A   Mostly Cloudy
4:53 PM 48.0 °F - 39.9 °F 74% 29.78 in 10.0 mi NNE 5.8 mph - 0.00 in   Overcast
5:53 PM 46.9 °F - 37.9 °F 71% 29.80 in 10.0 mi NE 5.8 mph - N/A   Overcast
6:53 PM 46.9 °F - 37.9 °F 71% 29.81 in 10.0 mi NE 5.8 mph - N/A   Overcast
7:53 PM 46.0 °F - 37.9 °F 73% 29.83 in 10.0 mi Calm Calm - N/A   Overcast
8:53 PM 43.0 °F 41.3 °F 37.9 °F 82% 29.84 in 10.0 mi NE 3.5 mph - N/A   Mostly Cloudy
9:53 PM 42.1 °F - 37.9 °F 85% 29.85 in 10.0 mi Calm Calm - N/A   Mostly Cloudy
10:53 PM 41.0 °F 39.0 °F 37.9 °F 89% 29.86 in 10.0 mi North 3.5 mph - N/A   Scattered Clouds
11:53 PM 42.1 °F - 39.0 °F 89% 29.87 in 10.0 mi Calm Calm - N/A   Overcast